FW2847 Weather Reports


Display with metric or nautical units.
time (UTC)temp
F
wind
direction
speed
MPH
gust
MPH
rain 1hr
in
rain 24hr
in
rain mn
in
humidity
%
barometer
mb
20260906090504 67 304 1.0 4.0 0.00 0.01 0.00 53 1020.6
20260906090236 67 304 1.0 4.0 0.00 0.01 0.00 53 1020.6
20260906085506 68 334 1.0 3.0 0.00 0.01 0.00 52 1020.6
20260906085003 68 288 0.0 3.0 0.00 0.01 0.00 51 1020.6
20260906084503 67 330 1.0 4.0 0.00 0.01 0.00 51 1020.6
20260906084002 67 10 1.0 4.0 0.00 0.01 0.00 52 1020.6
20260906083503 67 358 2.0 6.0 0.00 0.01 0.00 53 1020.6
20260906083001 67 337 2.0 6.0 0.00 0.01 0.00 53 1020.6
20260906082503 66 312 3.0 5.0 0.00 0.01 0.00 54 1020.6
20260906082000 66 306 4.0 6.0 0.00 0.01 0.00 55 1020.6
20260906081501 66 293 4.0 6.0 0.00 0.01 0.00 55 1020.6
20260906081000 67 311 4.0 6.0 0.00 0.01 0.00 54 1020.6
20260906080501 66 314 5.0 7.0 0.00 0.01 0.00 54 1020.6
20260906075958 66 305 5.0 8.0 0.00 0.01 0.00 54 1020.6
20260906075500 67 298 5.0 8.0 0.00 0.01 0.00 54 1020.6
20260906075228 66 288 4.0 6.0 0.00 0.01 0.00 55 1020.6
20260906074457 66 305 4.0 6.0 0.00 0.01 0.00 55 1020.6
20260906074228 67 298 4.0 6.0 0.00 0.01 0.00 53 1020.6
20260906073457 67 301 4.0 6.0 0.00 0.01 0.00 53 1020.6
20260906072957 67 295 4.0 5.0 0.00 0.01 0.00 54 1020.6
20260906072727 68 300 3.0 5.0 0.00 0.01 0.00 54 1020.6
20260906072229 68 300 3.0 4.0 0.00 0.01 0.00 54 1020.6
20260906071458 68 293 3.0 5.0 0.00 0.01 0.00 54 1020.6
20260906070959 69 308 3.0 5.0 0.00 0.01 0.00 53 1020.6
20260906070459 71 299 2.0 5.0 0.00 0.01 0.00 47 1020.6
20260906065959 70 285 3.0 5.0 0.00 0.01 0.00 49 1020.6
20260906065458 70 285 2.0 5.0 0.00 0.01 0.00 50 1020.6
20260906064958 70 292 1.0 5.0 0.00 0.01 0.00 52 1020.6
20260906064456 70 279 1.0 2.0 0.00 0.01 0.00 51 1020.6
20260906063957 70 278 1.0 2.0 0.00 0.01 0.00 53 1020.6
20260906063454 69 279 0.0 1.0 0.00 0.01 0.00 55 1020.6
20260906062955 68 278 0.0 2.0 0.00 0.01 0.00 57 1020.6
20260906062453 68 272 0.0 2.0 0.00 0.01 0.00 60 1020.6
20260906061956 69 219 0.0 0.0 0.01 0.01 0.00 56 1020.6
20260906061454 69 219 0.0 0.0 0.01 0.01 0.00 56 1020.6
20260906061224 69 219 0.0 1.0 0.01 0.01 0.00 56 1020.6
20260906060454 69 219 0.0 1.0 0.01 0.01 0.00 57 1020.6
20260906055950 69 219 0.0 3.0 0.01 0.01 0.01 56 1020.6
20260906055450 69 231 0.0 3.0 0.01 0.01 0.01 61 1020.6
20260906054951 69 255 2.0 4.0 0.01 0.01 0.01 58 1020.6
20260906054453 70 295 3.0 5.0 0.01 0.01 0.01 55 1020.6
20260906053951 69 288 3.0 5.0 0.01 0.01 0.01 55 1020.6
20260906053449 68 295 3.0 7.0 0.01 0.01 0.01 59 1020.6
20260906052950 68 308 3.0 7.0 0.01 0.01 0.01 64 1020.6
20260906052451 69 305 2.0 7.0 0.01 0.01 0.01 62 1020.6
20260906051949 71 226 0.0 0.0 0.00 0.00 0.00 53 1020.6
20260906051450 72 167 0.0 2.0 0.00 0.00 0.00 51 1020.6
20260906050948 73 158 0.0 2.0 0.00 0.00 0.00 48 1020.6
20260906050450 74 272 0.0 1.0 0.00 0.00 0.00 46 1020.6
20260906045947 74 280 0.0 2.0 0.00 0.00 0.00 45 1020.6
20260906045448 75 101 0.0 2.0 0.00 0.00 0.00 42 1020.6
20260906044948 76 184 0.0 1.0 0.00 0.00 0.00 39 1020.6
20260906044449 76 90 0.0 3.0 0.00 0.00 0.00 38 1020.6
20260906043948 76 319 2.0 5.0 0.00 0.00 0.00 37 1020.6
20260906043717 76 351 4.0 10.0 0.00 0.00 0.00 37 1020.6
20260906042948 77 315 5.0 10.0 0.00 0.00 0.00 37 1020.6
20260906042447 77 319 5.0 13.0 0.00 0.00 0.00 37 1020.6
20260906041947 77 281 4.0 13.0 0.00 0.00 0.00 38 1020.6
20260906041446 77 268 3.0 13.0 0.00 0.00 0.00 39 1020.6
20260906040948 77 191 3.0 11.0 0.00 0.00 0.00 38 1020.6
20260906040446 77 267 3.0 12.0 0.00 0.00 0.00 38 1020.6
20260906035945 77 331 3.0 12.0 0.00 0.00 0.00 38 1020.6
20260906035446 77 277 2.0 8.0 0.00 0.00 0.00 36 1020.6
20260906034946 76 291 1.0 6.0 0.00 0.00 0.00 35 1020.6
20260906034446 78 75 3.0 8.0 0.00 0.00 0.00 34 1020.6
20260906033943 79 277 4.0 8.0 0.00 0.00 0.00 33 1020.6
20260906033713 79 280 4.0 7.0 0.00 0.00 0.00 32 1020.6
20260906032943 79 278 4.0 7.0 0.00 0.00 0.00 32 1020.6
20260906032443 79 287 4.0 7.0 0.00 0.00 0.00 32 1020.6
20260906031943 78 290 4.0 7.0 0.00 0.00 0.00 33 1020.6
20260906031445 78 289 4.0 7.0 0.00 0.00 0.00 33 1020.6
20260906030943 78 268 5.0 10.0 0.00 0.00 0.00 33 1020.6
20260906030444 78 288 6.0 10.0 0.00 0.00 0.00 33 1020.6
20260906025943 78 282 5.0 10.0 0.00 0.00 0.00 34 1020.6
20260906025445 77 269 5.0 8.0 0.00 0.00 0.00 34 1020.6
20260906024942 78 292 5.0 9.0 0.00 0.00 0.00 34 1020.6
20260906024714 77 295 5.0 9.0 0.00 0.00 0.00 34 1020.6
20260906023945 77 281 6.0 9.0 0.00 0.00 0.00 34 1020.6
20260906023442 77 279 5.0 9.0 0.00 0.00 0.00 34 1020.6
20260906022943 77 299 4.0 7.0 0.00 0.00 0.00 34 1020.6
20260906022442 78 266 5.0 9.0 0.00 0.00 0.00 34 1020.6
20260906021945 78 297 5.0 10.0 0.00 0.00 0.00 33 1020.6
20260906021443 78 298 5.0 10.0 0.00 0.00 0.00 33 1020.6
20260906020942 78 296 4.0 7.0 0.00 0.00 0.00 32 1020.6
20260906020713 79 298 5.0 9.0 0.00 0.00 0.00 31 1020.6
20260906015945 80 295 6.0 11.0 0.00 0.00 0.00 31 1020.6
20260906015443 80 275 7.0 13.0 0.00 0.00 0.00 31 1020.6
20260906014944 80 287 7.0 13.0 0.00 0.00 0.00 31 1020.6
20260906014443 80 296 6.0 12.0 0.00 0.00 0.00 31 1020.6
20260906013943 79 295 6.0 9.0 0.00 0.00 0.00 32 1020.6
20260906013443 79 288 5.0 9.0 0.00 0.00 0.00 32 1020.6
20260906013215 80 297 5.0 9.0 0.00 0.00 0.00 32 1020.6
20260906012443 79 302 6.0 9.0 0.00 0.00 0.00 32 1020.6
20260906011943 80 301 6.0 10.0 0.00 0.00 0.00 32 1020.6
20260906011445 80 293 6.0 10.0 0.00 0.00 0.00 32 1020.6
20260906011214 80 274 7.0 10.0 0.00 0.00 0.00 32 1020.6
20260906010444 80 298 7.0 10.0 0.00 0.00 0.00 31 1020.6
20260906005943 80 302 7.0 10.0 0.00 0.00 0.00 31 1020.6
20260906005716 80 285 6.0 10.0 0.00 0.00 0.00 31 1020.6
20260906005214 81 317 6.0 9.0 0.00 0.00 0.00 31 1020.6
20260906004444 80 296 5.0 8.0 0.00 0.00 0.00 31 1020.6
20260906003944 81 314 6.0 11.0 0.00 0.00 0.00 31 1020.6
20260906003443 81 302 7.0 12.0 0.00 0.00 0.00 30 1020.6
20260906002943 82 299 6.0 12.0 0.00 0.00 0.00 30 1020.6
20260906002714 83 308 4.0 9.0 0.00 0.00 0.00 29 1020.6
20260906001940 83 336 4.0 9.0 0.00 0.00 0.00 27 1020.6
20260906001440 83 330 4.0 8.0 0.00 0.00 0.00 27 1020.6
20260906001211 84 20 4.0 9.0 0.00 0.00 0.00 27 1020.6
20260906000440 84 18 5.0 10.0 0.00 0.00 0.00 27 1020.6
20260906000212 85 6 4.0 10.0 0.00 0.00 0.00 26 1020.6
20260905235442 85 333 4.0 9.0 0.00 0.00 0.00 26 1020.6
20260905234941 85 313 4.0 9.0 0.00 0.00 0.00 26 1020.6
20260905234441 85 49 4.0 8.0 0.00 0.00 0.00 26 1020.6
20260905233940 85 327 4.0 8.0 0.00 0.00 0.00 26 1020.6
20260905233441 85 15 4.0 10.0 0.00 0.00 0.00 26 1020.6
20260905232938 86 35 4.0 10.0 0.00 0.00 0.00 25 1020.6
20260905232439 86 4 4.0 7.0 0.00 0.00 0.00 25 1020.6
20260905231939 87 55 4.0 8.0 0.00 0.00 0.00 25 1020.6
20260905231440 87 51 4.0 8.0 0.00 0.00 0.00 24 1020.6
20260905230938 86 70 3.0 7.0 0.00 0.00 0.00 25 1020.6
20260905230439 86 70 3.0 7.0 0.00 0.00 0.00 26 1020.6
20260905225939 86 69 3.0 7.0 0.00 0.00 0.00 25 1020.6
20260905225438 87 79 2.0 7.0 0.00 0.00 0.00 25 1020.6
20260905224939 88 348 1.0 2.0 0.00 0.00 0.00 24 1020.6
20260905224935 87 95 1.0 4.0 0.00 0.00 0.00 24 1020.6
20260905223936 88 325 1.0 4.0 0.00 0.00 0.00 24 1020.6
20260905223434 87 98 2.0 4.0 0.00 0.00 0.00 24 1020.6
20260905223207 87 69 2.0 4.0 0.00 0.00 0.00 24 1020.6
20260905222437 88 82 1.0 4.0 0.00 0.00 0.00 24 1020.6
20260905221934 87 168 1.0 5.0 0.00 0.00 0.00 24 1020.6
20260905221432 86 79 4.0 9.0 0.00 0.00 0.00 25 1020.6
20260905220928 87 130 3.0 9.0 0.00 0.00 0.00 25 1020.6
20260905220431 88 82 1.0 7.0 0.00 0.00 0.00 24 1020.6
20260905215927 88 251 3.0 8.0 0.00 0.00 0.00 24 1020.6
20260905215428 89 97 6.0 13.0 0.00 0.00 0.00 24 1020.6
20260905214928 89 100 5.0 13.0 0.00 0.00 0.00 24 1020.6
20260905214425 90 80 3.0 11.0 0.00 0.00 0.00 23 1020.6
20260905213927 90 99 4.0 9.0 0.00 0.00 0.00 23 1020.6
20260905213425 89 68 3.0 9.0 0.00 0.00 0.00 24 1020.6
20260905212925 89 91 2.0 9.0 0.00 0.00 0.00 25 1020.6
20260905212427 89 14 3.0 7.0 0.00 0.00 0.00 24 1020.6
20260905211925 88 82 4.0 13.0 0.00 0.00 0.00 24 1020.6
20260905211425 89 96 2.0 13.0 0.00 0.00 0.00 23 1020.6
20260905210924 89 150 2.0 8.0 0.00 0.00 0.00 24 1020.6
20260905210655 88 70 3.0 8.0 0.00 0.00 0.00 24 1020.6
20260905205923 88 101 3.0 6.0 0.00 0.00 0.00 24 1020.6
20260905205422 88 20 4.0 8.0 0.00 0.00 0.00 24 1020.6
20260905204924 88 117 4.0 12.0 0.00 0.00 0.00 24 1020.6
20260905204422 89 112 4.0 12.0 0.00 0.00 0.00 23 1020.6
20260905203922 89 59 6.0 13.0 0.00 0.00 0.00 23 1020.6
20260905203422 89 82 6.0 13.0 0.00 0.00 0.00 24 1020.6
20260905202924 88 240 5.0 12.0 0.00 0.00 0.00 25 1020.6
20260905202421 88 124 4.0 12.0 0.00 0.00 0.00 25 1020.6
20260905202153 87 71 2.0 10.0 0.00 0.00 0.00 26 1020.6
20260905201421 87 209 3.0 7.0 0.00 0.00 0.00 27 1020.6
20260905201153 86 80 5.0 12.0 0.00 0.00 0.00 26 1020.6
20260905200420 87 84 5.0 15.0 0.00 0.00 0.00 25 1020.6
20260905195920 89 67 5.0 15.0 0.00 0.00 0.00 25 1020.6
20260905195420 88 65 6.0 12.0 0.00 0.00 0.00 24 1020.6
20260905195153 89 53 7.0 13.0 0.00 0.00 0.00 24 1020.6
20260905194652 88 72 6.0 13.0 0.00 0.00 0.00 24 1020.6
20260905193922 88 110 5.0 11.0 0.00 0.00 0.00 25 1020.6
20260905193651 88 57 5.0 11.0 0.00 0.00 0.00 25 1020.6
20260905192920 87 127 6.0 14.0 0.00 0.00 0.00 26 1020.6
20260905192651 87 47 8.0 14.0 0.00 0.00 0.00 25 1020.6
20260905191918 88 75 7.0 12.0 0.00 0.00 0.00 26 1020.6
20260905191649 87 84 6.0 12.0 0.00 0.00 0.00 27 1020.6
20260905190918 87 107 5.0 13.0 0.00 0.00 0.00 27 1020.6
20260905190419 87 84 5.0 13.0 0.00 0.00 0.00 25 1020.6
20260905185919 86 120 4.0 12.0 0.00 0.00 0.00 26 1020.6
20260905185420 87 112 4.0 14.0 0.00 0.00 0.00 25 1020.6
20260905185150 87 39 5.0 14.0 0.00 0.00 0.00 25 1020.6
20260905184418 87 74 5.0 12.0 0.00 0.00 0.00 25 1020.6
20260905183920 87 91 4.0 12.0 0.00 0.00 0.00 26 1020.6
20260905183423 86 91 3.0 9.0 0.00 0.00 0.00 29 1020.6
20260905183418 87 85 3.0 10.0 0.00 0.00 0.00 28 1020.6
20260905182419 86 248 3.0 9.0 0.00 0.00 0.00 28 1020.6
20260905182152 86 94 4.0 9.0 0.00 0.00 0.00 30 1020.6
20260905181649 85 79 4.0 9.0 0.00 0.00 0.00 31 1020.6
20260905180920 84 56 2.0 9.0 0.00 0.00 0.00 30 1020.6
20260905180417 84 70 2.0 7.0 0.00 0.00 0.00 30 1020.6
20260905175918 84 227 3.0 9.0 0.00 0.00 0.00 30 1020.6
20260905175418 85 117 3.0 9.0 0.00 0.00 0.00 30 1020.6
20260905175151 85 102 2.0 10.0 0.00 0.00 0.00 30 1020.6
20260905174418 85 118 3.0 10.0 0.00 0.00 0.00 31 1020.6
20260905173918 84 241 4.0 10.0 0.00 0.00 0.00 32 1020.6
20260905173416 85 109 3.0 10.0 0.00 0.00 0.00 32 1020.6
20260905172918 84 84 3.0 10.0 0.00 0.00 0.00 31 1020.6
20260905172417 83 120 4.0 10.0 0.00 0.00 0.00 32 1020.6
20260905172149 83 90 3.0 10.0 0.00 0.00 0.00 32 1020.6
20260905171417 84 103 3.0 7.0 0.00 0.00 0.00 32 1020.6
20260905170915 84 98 3.0 8.0 0.00 0.00 0.00 31 1020.6
20260905170412 85 91 3.0 8.0 0.00 0.00 0.00 31 1020.6
20260905170145 85 80 2.0 7.0 0.00 0.00 0.00 32 1020.6
20260905165413 85 127 2.0 9.0 0.00 0.00 0.00 31 1020.6
20260905164913 85 125 3.0 9.0 0.00 0.00 0.00 31 1020.6
20260905164640 85 102 4.0 6.0 0.00 0.00 0.00 32 1020.6
20260905163911 84 122 5.0 10.0 0.00 0.00 0.00 31 1020.6
20260905163642 84 74 4.0 10.0 0.00 0.00 0.00 29 1020.6
20260905162911 84 79 3.0 7.0 0.00 0.00 0.00 31 1020.6
20260905162409 83 111 4.0 8.0 0.00 0.00 0.00 30 1020.6
20260905162139 83 89 4.0 8.0 0.00 0.00 0.00 30 1020.6
20260905161409 83 123 3.0 6.0 0.00 0.00 0.00 29 1020.6
20260905160909 83 122 2.0 6.0 0.00 0.00 0.00 29 1020.6
20260905160409 83 99 2.0 5.0 0.00 0.00 0.00 30 1020.6
20260905155908 82 89 1.0 3.0 0.00 0.00 0.00 30 1020.6
20260905155410 82 84 1.0 2.0 0.00 0.00 0.00 28 1020.6
20260905154908 82 226 0.0 2.0 0.00 0.00 0.00 28 1020.6
20260905154409 82 140 0.0 2.0 0.00 0.00 0.00 31 1020.6
20260905153907 81 115 0.0 2.0 0.00 0.00 0.00 30 1020.6
20260905153408 80 89 0.0 2.0 0.00 0.00 0.00 31 1020.6
20260905152906 79 92 0.0 2.0 0.00 0.00 0.00 32 1020.6
20260905152407 78 98 0.0 2.0 0.00 0.00 0.00 33 1020.6
20260905151904 76 88 0.0 2.0 0.00 0.00 0.00 36 1020.6
20260905151406 75 88 0.0 0.0 0.00 0.00 0.00 37 1020.6
20260905150903 74 88 0.0 0.0 0.00 0.00 0.00 38 1020.6
20260905150404 73 88 0.0 0.0 0.00 0.00 0.00 38 1020.6
20260905145903 74 89 0.0 0.0 0.00 0.00 0.00 38 1020.6
20260905145406 74 88 0.0 0.0 0.00 0.00 0.00 38 1020.6
20260905144903 73 88 0.0 0.0 0.00 0.00 0.00 39 1020.6
20260905144404 73 88 0.0 1.0 0.00 0.00 0.00 37 1020.6
20260905143903 74 88 0.0 2.0 0.00 0.00 0.00 37 1020.6
20260905143405 75 88 1.0 2.0 0.00 0.00 0.00 36 1020.6
20260905142903 76 246 0.0 1.0 0.00 0.00 0.00 34 1020.6
20260905142405 77 248 0.0 0.0 0.00 0.00 0.00 34 1020.6
20260905141904 77 248 0.0 0.0 0.00 0.00 0.00 33 1020.6
20260905141406 77 250 0.0 1.0 0.00 0.00 0.00 34 1020.6
20260905140903 77 243 0.0 1.0 0.00 0.00 0.00 34 1020.6
20260905140406 78 88 0.0 1.0 0.00 0.00 0.00 34 1020.6
20260905135903 77 86 0.0 0.0 0.00 0.00 0.00 36 1020.6
20260905135404 76 86 0.0 1.0 0.00 0.00 0.00 36 1020.6
20260905134904 74 86 1.0 3.0 0.00 0.00 0.00 39 1020.6
20260905134405 74 86 1.0 3.0 0.00 0.00 0.00 38 1020.6
20260905133904 73 109 0.0 1.0 0.00 0.00 0.00 38 1020.6
20260905133405 73 230 0.0 1.0 0.00 0.00 0.00 39 1020.6
20260905133137 72 125 0.0 1.0 0.00 0.00 0.00 40 1020.6
20260905132404 71 224 0.0 2.0 0.00 0.00 0.00 40 1020.6
20260905131904 70 276 0.0 2.0 0.00 0.00 0.00 42 1020.6
20260905131404 70 253 0.0 1.0 0.00 0.00 0.00 41 1020.6
20260905130903 69 245 0.0 1.0 0.00 0.00 0.00 41 1020.6
20260905130403 69 234 0.0 3.0 0.00 0.00 0.00 42 1020.6
20260905125905 68 224 0.0 3.0 0.00 0.00 0.00 43 1020.6
20260905125637 68 150 0.0 2.0 0.00 0.00 0.00 44 1020.6
20260905125134 67 150 0.0 2.0 0.00 0.00 0.00 45 1020.6
20260905124401 66 257 0.0 2.0 0.00 0.00 0.00 45 1020.6
20260905123903 66 165 0.0 2.0 0.00 0.00 0.00 45 1020.6
20260905123404 67 228 0.0 2.0 0.00 0.00 0.00 45 1020.6
20260905122903 67 221 0.0 4.0 0.00 0.00 0.00 43 1020.6
20260905122402 68 245 0.0 4.0 0.00 0.00 0.00 42 1020.6
20260905121903 69 99 1.0 2.0 0.00 0.00 0.00 41 1020.6
20260905121403 68 86 0.0 2.0 0.00 0.00 0.00 41 1020.6
20260905120903 68 217 0.0 1.0 0.00 0.00 0.00 41 1020.6
20260905120406 67 223 0.0 0.0 0.00 0.00 0.00 41 1020.6
20260905120402 68 240 0.0 1.0 0.00 0.00 0.00 40 1020.6
20260905115400 67 214 0.0 2.0 0.00 0.00 0.00 42 1020.6
20260905115131 68 214 0.0 2.0 0.00 0.00 0.00 42 1020.6
20260905114400 69 216 0.0 2.0 0.00 0.00 0.00 39 1020.6
20260905113902 69 285 0.0 1.0 0.00 0.00 0.00 39 1020.6
20260905113359 69 286 0.0 2.0 0.00 0.00 0.00 40 1020.6
20260905112859 69 285 0.0 2.0 0.00 0.00 0.00 41 1020.6
20260905112359 70 286 0.0 2.0 0.00 0.00 0.00 38 1020.6
20260905112132 72 286 1.0 3.0 0.00 0.00 0.00 36 1020.6
20260905111402 73 275 1.0 3.0 0.00 0.00 0.00 35 1020.6
20260905111131 72 273 0.0 2.0 0.00 0.00 0.00 36 1020.6
20260905110357 72 276 0.0 2.0 0.00 0.00 0.00 36 1020.6
20260905105859 72 280 0.0 2.0 0.00 0.00 0.00 36 1020.6
20260905105358 73 279 0.0 1.0 0.00 0.00 0.00 37 1020.6
20260905104857 73 279 0.0 2.0 0.00 0.00 0.00 36 1020.6
20260905104359 72 279 0.0 2.0 0.00 0.00 0.00 38 1020.6
20260905103858 71 293 1.0 2.0 0.00 0.00 0.00 39 1020.6
20260905103634 71 293 1.0 2.0 0.00 0.00 0.00 39 1020.6
20260905102357 71 286 0.0 0.0 0.00 0.00 0.00 39 1020.6
20260905101900 71 286 0.0 1.0 0.00 0.00 0.00 39 1020.6
20260905101357 72 286 1.0 3.0 0.00 0.00 0.00 39 1020.6
20260905100857 73 286 1.0 3.0 0.00 0.00 0.00 37 1020.6
20260905100357 73 279 2.0 4.0 0.00 0.00 0.00 37 1020.6
20260905095858 72 284 1.0 4.0 0.00 0.00 0.00 38 1020.6
20260905095358 73 271 1.0 3.0 0.00 0.00 0.00 37 1020.6
20260905094859 73 278 0.0 2.0 0.00 0.00 0.00 36 1020.6
20260905094358 73 278 1.0 3.0 0.00 0.00 0.00 36 1020.6
20260905093900 73 278 0.0 3.0 0.00 0.00 0.00 37 1020.6
20260905093358 73 279 1.0 3.0 0.00 0.00 0.00 37 1020.6
20260905092857 74 281 1.0 3.0 0.00 0.00 0.00 36 1020.6
20260905092628 74 277 1.0 3.0 0.00 0.00 0.00 36 1020.6
20260905091855 74 269 2.0 3.0 0.00 0.00 0.00 36 1020.6
20260905091356 74 274 2.0 3.0 0.00 0.00 0.00 36 1020.6